Regional Weather Roundup
Issued by NWS Little Rock, AR

Home | Current Version | Previous Version | Text Only | Print | Product List | Glossary On
Versions: 1 2 3 4 5 6 7 8 9 10 11 12 13 14 15 16 17 18 19 20 21 22 23 24 25 26 27 28 29 30 31 32
000
ASUS44 KLZK 180805
RWRLZK

WEATHER ROUNDUP FOR ARKANSAS
NATIONAL WEATHER SERVICE LITTLE ROCK AR
300 AM CDT FRI AUG 18 2017

NOTE: "FAIR" INDICATES FEW OR NO CLOUDS BELOW 12,000 FEET WITH NO
SIGNIFICANT WEATHER AND/OR OBSTRUCTIONS TO VISIBILITY.

ARZ001-003-010-029-180900-
NORTHWEST ARKANSAS

CITY           SKY/WX    TMP DP  RH WIND       PRES   REMARKS
FAYETTEVILLE   PTCLDY    67  67 100 CALM      30.03S
FORT SMITH     CLEAR     75  74  96 CALM      30.00R
HARRISON       CLEAR     67  67 100 W3        30.03S
BENTONVILLE    CLEAR     68  66  94 CALM      30.03S
ROGERS         CLEAR     68  66  93 CALM      30.04S
SILOAM SPGS    MOCLDY    70  66  88 CALM      30.03R
HIGHFILL       CLEAR     67  67 100 S3        30.04R FOG
$$

ARZ004-005-016-180900-
NORTH CENTRAL ARKANSAS

CITY           SKY/WX    TMP DP  RH WIND       PRES   REMARKS
BATESVILLE     CLEAR     73  72  94 CALM      29.98S
FLIPPIN        CLEAR     70  63  78 CALM      29.98R
MTN HOME       CLEAR     68  68 100 CALM      30.00R
$$

ARZ040-041-180900-
WEST CENTRAL ARKANSAS

CITY           SKY/WX    TMP DP  RH WIND       PRES   REMARKS
MENA           PTCLDY    72  72 100 CALM      30.04R
MOUNT IDA      MOCLDY    71  69  93 CALM      29.99S FOG
$$

ARZ009-017-025-026-028-180900-
NORTHEAST ARKANSAS

CITY           SKY/WX    TMP DP  RH WIND       PRES   REMARKS
JONESBORO      CLEAR     75  75 100 W6        29.95R
NEWPORT        PTCLDY    73  72  96 W3        29.97R
WALNUT RIDGE   CLEAR     72  68  88 W6        29.96R
BLYTHEVILLE    PTCLDY    74  73  97 W3        29.95R
$$

ARZ022-023-033-042-044-180900-
CENTRAL ARKANSAS

CITY           SKY/WX    TMP DP  RH WIND       PRES   REMARKS
LITTLE ROCK    PTCLDY    73  73 100 W6        29.99R
N LITTLE ROCK    N/A     73  71  94 CALM      29.99S
JACKSONVILLE   CLOUDY    71  71 100 CALM      29.98S
CONWAY           N/A     72  72 100 S5        29.97R
SEARCY           N/A    N/A N/A N/A MISG        N/A
HOT SPRINGS    CLOUDY    73  73 100 W3        30.00S
RUSSELLVILLE   CLEAR     70  70 100 CALM      29.99R FOG
CLINTON        FOG       70  70 100 CALM      29.99S VSB 1/4
$$

ARZ036-180900-
EAST ARKANSAS

CITY           SKY/WX    TMP DP  RH WIND       PRES   REMARKS
WEST MEMPHIS   PTCLDY    74  73  97 CALM      29.95S
$$

ARZ050-053-066-070-073-180900-
SOUTHWEST ARKANSAS

CITY           SKY/WX    TMP DP  RH WIND       PRES   REMARKS
ARKADELPHIA    FAIR      72  71  97 CALM      30.00S
CAMDEN         CLOUDY    73  72  94 CALM      29.99S
TEXARKANA      CLOUDY    77  74  90 CALM      30.00S
EL DORADO      CLEAR     75  73  93 CALM      30.00F
DE QUEEN       CLOUDY    74  74 100 CALM      29.99S FOG
$$

ARZ056-057-069-180900-
SOUTHEAST ARKANSAS

CITY           SKY/WX    TMP DP  RH WIND       PRES   REMARKS
PINE BLUFF     CLEAR     73  71  93 SW5       29.99S
MONTICELLO     PTCLDY    76  73  91 NW3       29.99F

$$






USA.gov is the U.S. government's official web portal to all federal, state and local government web resources and services.